OneWeb SL0157

operational
NORAD ID: 48055 Int'l Des: 2021-025 Owner: ONEWEBN Country: UK Constellation: oneweb
LEOCIRCULARPOLARONEWEB_TYPE

关于 OneWeb SL0157

正在加载描述...

实时位置

正在加载3D地球...

即将过境

高度历史

Altitude vs Time

uPlot chart will show altitude changes over time

两行轨道根数

1 48055U 21025P 25353.45076039 .00000253 00000-0 65923-3 0 9992
2 48055 87.8981 355.9377 0001344 88.0204 272.1079 13.13471872229972
Epoch: Dec 19, 2025 • Age: 18 hours

当前状态

高度 1222.2 km
速度 7.24 km/s
星下点 -31.68°S, 22.89°E
发射日期 Mar 25, 2021
运行时间 4.7 years
类型 internet

技术详情

分类 Payload
质量 148.00 kg
干质量 140.00 kg
总质量 148.00 kg
长度 1.30 m
直径 1.00 m
跨度 5.00 m
形状 Trapezoid+2 pan
制造商 ONEWUS
平台类型 ARROW
阶段状态 In Orbit
所有者/国家 ONEWEBN/UK

大型星座

Loading constellations...